Location: Argonnex
(45.9500°N, 6.1333°E)
Time: 09:45:50
(UTC+00:00)

Cosmos 2266 Rocket - Pass Details

Date: 04 October 2023
Orbit: 933 x 1008 km, 82.9° (Epoch: 10 December)

Event Time Altitude Azimuth Distance (km) Brightness Sun altitude
Exits shadow 00:24:55 12° 66° (ENE) 2,647 6.6 -46.2°
Drops below altitude 10° 00:26:16 10° 54° (NE) 2,786 6.8 -46.1°
Sets 00:30:36 0° 26° (NNE) 3,749 7.8 -45.8°
